Tracking 21612 objects as of 20-Oct-2020
HD Live streaming from Space Station
objects crossing your sky now

SL-3 DEB

Track SL-3 DEB now!
10-day predictions


NORAD ID: 14631
Int'l Code: 1983-075E
Perigee: 466.9 km
Apogee: 476.0 km
Inclination: 97.7 °
Period: 93.9 minutes
Semi major axis: 6842 km
RCS: 0.045 m2 (small)
Launch date: July 24, 1983
Source: Commonwealth of Independent States (former USSR) (CIS)
Launch site: TYURATAM MISSILE AND SPACE COMPLEX (TTMTR)

Note: This is SATELLITE DEBRIS
aabbcc
Your satellite tracking list
Your tracking list is empty




NASA's NSSDC Master Catalog

Two Line Element Set (TLE):
1 14631U 83075E   20294.17921764  .00001262  00000-0  41131-4 0  9997
2 14631  97.6979 215.1120 0006653 210.2588 149.8270 15.33863179 26928
Source of the keplerian elements: AFSPC